Theta_e
305 295 293 291 295 298 299 299 299 300 299 298 298 296 294 294 294 298 296 298 297 296 294 295 296 296 298 297 295 296 296 296 295 296 296 296 295 295 295 295 295 295 294 296 297 297 297 298 298 299 299 299 301 302 303 302 302 303 303 302 301 304 304 302 300 299 298 296 296 295 294 293 293 293 293 292 292 292 293 293 293 293 293 293 294 294
304 294 295 298 300 300 300 301 300 299 299 297 296 294 293 296 293 298 297 296 298 295 293 295 295 296 298 299 297 296 295 294 295 296 296 295 295 295 295 295 295 294 294 295 295 296 296 296 298 298 298 299 299 300 301 300 301 302 302 300 301 301 300 299 298 297 296 296 294 294 292 291 291 291 290 290 290 291 292 292 291 292 292 292 292 293
294 293 297 301 302 302 301 301 300 299 297 297 295 293 292 293 297 299 296 297 297 295 292 294 294 295 297 299 297 295 295 296 297 297 297 296 295 295 295 295 295 293 293 294 294 295 296 297 297 297 296 297 299 299 300 301 301 300 300 299 298 298 297 296 296 295 294 294 293 292 291 290 289 290 290 290 290 290 290 290 290 291 291 291 291 291
291 295 299 302 302 300 299 299 298 299 299 295 293 291 289 295 294 290 294 296 295 294 292 293 292 295 298 299 300 296 296 296 297 299 298 298 295 295 295 295 294 293 293 293 293 294 295 295 295 296 296 296 297 298 299 299 299 299 298 297 296 294 294 293 293 294 293 293 293 292 291 290 290 288 290 289 289 289 289 289 289 290 290 290 290 290
295 300 303 302 301 299 297 298 297 294 291 295 295 293 292 294 295 294 293 293 295 295 295 293 291 292 295 295 297 299 297 296 293 294 293 294 296 296 296 296 295 294 294 293 293 294 295 295 295 295 296 297 296 297 297 298 297 298 296 295 294 294 293 293 293 293 292 291 291 290 290 290 289 289 287 287 287 287 288 288 288 288 289 289 289 289
297 301 303 300 299 298 298 295 296 295 291 292 296 296 296 296 295 296 297 295 291 290 294 292 284 285 294 295 296 293 291 292 293 293 293 293 294 294 294 294 294 295 295 293 293 293 294 295 295 295 296 296 296 295 296 297 297 296 295 294 293 293 292 292 292 292 292 291 290 289 288 287 286 285 285 284 284 285 286 286 287 288 288 288 288 288
298 301 301 299 298 297 297 295 297 297 292 290 293 298 297 296 296 296 294 293 285 283 292 296 284 284 292 294 295 291 292 292 291 292 292 293 293 292 293 293 293 294 294 294 293 294 294 293 293 294 295 295 294 293 295 295 295 295 294 294 293 292 292 293 292 292 292 291 290 290 289 287 286 285 286 286 286 286 286 286 286 286 287 288 287 287
297 296 297 299 298 296 295 293 298 297 292 289 296 300 298 297 295 294 295 293 290 294 295 293 291 284 286 292 297 292 292 292 292 291 292 293 293 293 293 293 293 293 293 292 293 293 293 293 293 294 295 294 293 293 293 293 293 293 292 292 292 292 292 292 292 293 293 290 290 289 288 287 286 286 286 286 286 286 286 286 285 286 286 287 287 287
298 294 296 296 295 293 293 297 299 299 294 294 296 299 296 297 296 296 294 290 289 287 284 287 292 284 284 291 296 293 290 290 291 292 291 292 293 293 293 293 293 293 293 293 292 292 293 293 293 294 293 293 292 292 292 291 291 292 291 291 291 291 291 291 292 292 292 291 290 289 288 287 287 287 287 287 287 286 286 285 285 285 285 286 287 287
299 297 299 299 295 293 297 294 298 300 294 297 298 297 297 297 296 296 289 289 287 286 283 286 291 284 286 291 293 291 292 292 293 293 292 292 293 292 292 293 293 292 292 292 292 292 293 293 292 291 291 291 291 291 291 290 291 291 290 290 290 290 290 291 291 291 291 290 290 288 287 287 286 287 287 286 286 285 285 285 285 284 285 284 285 286
298 297 297 299 297 299 293 294 295 297 297 298 298 296 294 293 290 289 289 287 285 282 285 290 291 289 283 289 292 290 291 295 296 294 293 293 293 292 293 292 292 292 292 291 292 292 292 291 290 290 289 289 289 289 289 289 289 289 290 289 289 289 290 291 291 290 290 290 289 288 288 287 287 287 286 286 285 285 285 284 284 284 284 284 284 284
296 297 297 298 298 297 297 293 295 296 297 297 293 289 291 288 287 286 285 286 280 281 284 290 291 291 282 284 293 296 295 296 297 294 292 292 292 292 292 292 292 292 292 291 291 290 289 288 288 289 288 288 288 288 288 288 289 289 289 289 288 289 290 290 291 290 290 290 290 289 289 288 288 287 287 285 285 285 284 284 284 283 283 283 284 283
291 292 297 296 298 298 295 293 292 295 294 295 291 289 284 282 281 279 282 278 280 280 282 285 291 285 287 291 293 296 294 294 294 295 293 292 292 292 292 292 291 291 291 291 290 289 288 287 287 287 287 287 287 287 288 288 288 288 288 288 288 288 289 290 290 290 290 290 290 289 289 288 288 287 287 286 285 285 284 284 283 283 282 282 282 282
289 294 296 296 295 298 298 291 286 285 288 291 289 286 283 281 279 277 279 281 280 283 284 284 288 285 288 290 297 298 295 292 292 294 295 293 292 292 292 291 291 291 290 290 289 288 288 287 287 287 287 287 287 287 288 288 288 288 288 288 288 288 289 289 289 290 289 289 289 288 288 288 288 287 286 286 285 285 284 284 283 283 282 282 282 282
283 284 291 294 289 298 297 297 295 291 289 291 293 291 287 285 280 276 281 279 280 281 281 284 283 280 281 287 291 291 291 290 290 293 294 293 293 292 291 291 290 290 289 290 289 288 288 288 288 287 287 287 287 287 288 288 287 287 287 288 288 288 288 288 288 288 288 287 287 287 287 287 287 286 286 285 285 285 284 284 283 283 282 282 282 281
289 289 296 298 297 297 295 298 300 295 290 290 293 294 288 286 289 284 283 282 279 280 278 279 281 283 287 291 289 290 289 289 290 291 293 292 292 291 290 290 290 290 289 289 289 288 288 288 287 287 287 287 287 287 287 287 287 287 287 287 288 288 288 288 287 287 287 287 287 286 286 286 286 286 285 285 285 284 284 283 282 282 281 282 281 282
289 288 294 296 296 295 296 298 299 299 285 289 291 286 290 293 292 286 282 282 280 279 280 283 281 285 291 290 288 288 288 289 289 291 290 290 291 290 290 289 289 289 289 289 289 288 288 287 287 287 286 287 286 286 287 287 288 288 288 287 287 287 287 286 286 286 286 286 286 285 285 285 284 284 283 283 283 283 283 283 282 282 281 282 282 283
288 290 291 292 291 293 292 294 299 297 298 290 284 289 294 295 293 286 281 281 280 279 282 283 283 282 282 284 288 287 286 286 287 287 290 290 290 289 289 289 289 289 289 289 289 288 288 287 287 287 287 287 286 286 287 287 288 288 288 287 287 286 286 286 286 286 286 285 285 285 285 284 284 284 283 283 282 282 282 282 282 281 281 280 281 282
297 287 289 292 292 292 295 296 295 297 295 291 288 296 290 282 282 285 283 279 278 279 281 280 283 285 285 287 285 287 287 287 287 288 288 289 289 289 290 290 290 289 289 289 289 288 288 287 287 287 287 287 286 287 287 288 288 287 287 287 287 286 286 286 286 285 286 285 286 286 284 284 284 283 283 283 283 282 281 281 280 280 280 280 280 280
296 287 286 289 291 292 293 293 285 287 294 294 294 290 294 287 284 283 286 283 283 280 278 283 283 284 288 290 288 290 290 290 288 288 289 290 290 290 290 290 290 289 289 289 289 288 288 288 287 287 286 286 286 286 286 287 287 286 287 286 286 286 285 285 285 285 285 285 285 284 283 283 283 283 283 283 282 281 281 280 280 280 279 279 280 279
291 293 285 285 291 291 283 287 288 290 288 286 285 283 288 286 288 286 286 284 282 280 280 281 280 284 289 295 292 293 293 292 290 289 290 291 291 291 291 291 290 290 290 289 289 289 288 287 287 286 285 285 285 285 285 286 286 286 286 285 285 285 284 284 284 284 284 284 283 283 282 282 282 282 282 282 281 281 280 280 280 279 279 279 278 278
290 288 288 284 283 284 288 293 293 294 294 291 290 287 290 287 284 282 282 287 285 283 281 280 281 286 293 294 296 295 295 294 293 291 291 291 291 291 291 291 291 290 290 289 289 289 288 287 286 285 285 284 284 284 284 285 285 284 285 285 284 284 284 283 283 284 283 283 282 282 281 281 281 281 281 281 280 280 280 279 279 279 278 277 277 277
296 290 289 284 285 287 291 294 295 293 293 293 292 289 292 290 287 285 282 282 284 286 286 281 279 285 291 292 291 292 293 296 294 293 292 292 291 292 292 292 291 291 290 290 289 289 288 287 286 285 285 284 284 284 284 284 285 284 284 284 284 284 283 283 283 283 283 282 282 281 281 281 281 281 280 280 279 279 279 278 278 278 277 277 277 276
295 288 287 289 292 291 291 294 294 294 294 290 290 290 290 289 290 289 288 284 283 283 282 281 279 284 289 289 289 289 288 291 292 294 293 292 292 292 292 291 291 290 290 290 290 289 288 286 285 285 284 284 284 283 283 284 284 284 284 284 283 283 283 283 283 283 282 282 281 281 281 280 280 280 279 279 278 278 277 277 277 277 277 277 276 276
290 288 288 285 285 285 285 287 287 290 290 285 286 291 292 292 292 291 288 286 284 286 284 282 280 284 290 288 289 289 288 289 291 292 293 291 291 292 292 292 292 291 291 290 289 288 286 285 285 285 285 284 283 283 283 283 284 284 284 283 283 283 283 283 283 283 282 282 281 281 280 280 280 279 278 277 277 277 277 276 276 276 276 276 276 275
293 289 288 284 282 280 280 279 280 282 285 287 288 289 291 291 290 288 285 287 283 287 287 285 285 289 288 289 290 289 289 289 290 291 291 292 291 291 292 292 292 291 290 289 289 287 286 286 285 285 284 284 284 283 283 283 283 284 283 283 283 283 283 283 283 282 282 281 281 280 279 279 279 278 277 277 277 276 277 277 277 277 277 276 275 274
288 289 292 290 288 286 288 288 291 290 285 284 285 288 289 291 292 290 289 286 284 286 285 288 289 288 288 289 287 288 286 287 288 289 291 292 291 291 292 292 292 291 290 289 289 288 286 285 285 285 284 284 283 283 283 283 283 283 283 283 283 283 283 283 282 282 282 281 280 280 279 279 279 278 277 277 277 277 277 277 277 276 275 275 274 273
286 288 290 291 291 292 293 293 294 291 287 288 287 286 289 289 289 288 287 286 290 285 284 290 290 288 290 289 290 290 288 289 290 290 290 291 292 291 291 289 291 289 288 288 288 287 286 286 285 285 284 284 284 283 283 283 283 283 283 283 283 283 283 283 282 282 281 281 280 279 279 279 278 278 278 278 277 277 276 276 276 276 276 275 274 273
288 288 291 290 290 293 294 294 295 292 291 290 289 288 287 288 288 287 288 290 289 286 286 290 291 289 291 293 292 291 292 291 292 292 292 292 291 290 289 289 288 289 289 288 288 287 287 286 286 285 284 284 284 283 283 283 283 283 283 283 283 283 283 283 282 282 281 280 280 279 279 279 279 279 279 279 278 277 277 276 276 276 275 274 273 274
289 289 291 291 289 291 292 292 294 293 292 291 290 289 289 288 288 288 289 290 290 289 291 291 290 290 293 293 294 294 293 293 293 292 291 290 290 290 290 289 289 289 288 288 288 288 288 287 286 286 285 284 284 283 283 283 283 283 283 283 283 283 283 283 282 282 281 280 280 280 280 280 280 279 279 278 278 277 276 276 275 274 273 272 272 271
291 289 293 288 287 288 290 292 292 292 291 289 290 290 290 289 288 289 289 289 289 289 291 290 289 289 295 293 293 294 292 291 289 289 290 291 290 290 290 289 289 289 289 289 289 288 288 287 287 286 285 284 284 284 284 283 283 283 283 283 283 283 283 283 282 282 281 281 281 281 281 280 279 279 278 278 277 276 276 275 274 273 271 270 269 270
290 286 287 287 285 286 289 288 288 289 289 288 289 289 289 289 287 288 287 290 288 287 288 288 287 288 294 294 292 290 290 290 290 290 290 290 290 289 289 288 288 288 288 289 289 288 287 287 288 287 286 285 285 284 284 284 283 283 283 283 283 283 283 282 282 282 281 281 281 281 281 280 280 279 278 278 277 276 276 274 273 272 271 270 269 269
288 288 287 286 284 285 289 288 288 288 287 284 286 289 291 290 291 292 291 291 291 291 288 286 287 293 292 292 290 289 290 291 290 291 291 289 289 289 289 288 288 288 289 288 288 288 288 288 288 288 287 286 286 285 285 285 284 283 283 283 283 283 282 282 282 281 281 281 281 281 281 281 280 279 278 278 277 276 275 274 273 271 270 269 269 267
287 287 287 287 283 285 285 286 286 284 278 281 291 292 294 291 291 289 290 290 292 292 290 293 290 290 289 290 291 290 289 291 292 291 290 291 289 288 289 289 289 289 288 288 288 288 288 289 288 288 288 287 287 286 285 285 284 284 283 283 282 282 282 282 281 281 281 282 282 282 281 280 280 279 278 277 276 275 274 273 272 271 270 269 269 269
287 287 286 287 283 284 284 285 282 277 280 288 285 286 289 293 294 291 292 293 293 292 292 291 288 287 289 291 292 292 291 288 288 290 290 290 290 289 289 289 289 288 288 288 288 288 288 288 288 288 287 287 287 286 285 285 285 284 283 283 282 282 282 281 281 282 282 282 282 282 281 280 280 279 278 277 276 274 273 272 271 270 269 269 270 269
286 286 286 284 286 282 280 283 276 279 285 283 286 284 285 289 289 289 289 291 293 293 292 291 292 290 290 286 284 287 287 286 287 287 288 290 290 291 290 289 288 288 288 289 288 288 288 288 288 288 288 288 287 286 286 286 285 284 284 283 282 282 282 281 281 281 281 281 281 281 281 280 279 279 278 276 275 273 273 271 270 269 269 269 268 268
289 287 287 283 287 280 282 282 283 287 286 287 282 283 286 286 286 288 285 289 293 293 293 292 292 290 288 285 285 285 286 287 289 291 287 288 289 289 290 289 289 289 289 289 289 288 289 288 288 288 287 286 287 286 286 285 285 284 283 282 282 281 281 281 281 281 281 281 281 280 280 280 279 279 277 276 274 273 272 271 269 269 269 268 269 269
289 287 287 284 283 286 282 280 280 280 278 284 284 286 286 282 287 291 289 287 289 288 290 291 289 287 286 284 285 286 288 288 288 290 288 286 287 289 288 289 289 289 289 288 287 287 287 287 287 286 287 286 286 286 285 285 285 284 283 282 282 281 281 280 281 281 281 281 281 281 280 280 280 279 277 275 273 272 272 270 270 269 269 269 268 268
285 286 287 286 284 283 282 279 280 278 281 283 283 282 281 282 287 288 287 285 287 284 287 289 288 287 287 286 285 288 288 287 288 290 291 286 286 287 287 286 286 287 287 287 288 287 286 286 286 286 285 285 285 284 284 285 284 283 283 282 282 281 281 281 281 281 280 281 281 281 281 280 279 279 276 274 274 272 271 271 270 269 269 268 268 268
284 284 285 283 283 284 283 281 279 284 282 284 283 281 283 281 289 289 278 278 286 283 285 288 287 286 286 287 286 288 289 287 288 290 287 287 287 288 287 285 284 284 284 284 284 285 285 285 285 284 284 284 283 283 284 284 284 283 283 282 282 281 281 281 282 281 281 281 281 281 280 279 279 278 276 275 274 272 272 271 269 268 268 267 267 267
281 282 284 281 283 283 284 282 282 282 285 283 281 281 283 282 288 281 276 283 282 281 284 287 287 288 287 285 287 287 288 287 287 284 283 285 285 284 284 283 283 284 283 283 283 284 283 283 284 284 283 283 282 282 282 283 283 283 282 281 281 281 282 283 282 282 282 281 281 280 280 279 278 278 277 276 274 273 271 270 270 268 267 266 266 265
281 281 281 284 282 282 283 281 281 284 286 283 281 283 283 287 279 279 283 280 281 281 284 285 286 286 287 286 287 287 283 281 282 281 282 283 283 282 283 282 282 282 282 282 283 282 282 282 281 281 281 281 281 281 281 282 282 282 281 281 281 283 284 283 282 282 281 280 280 279 278 278 278 278 277 274 272 271 270 269 269 268 267 266 265 265
282 280 279 280 283 281 281 280 279 276 284 283 284 284 284 283 284 285 282 282 282 282 284 285 285 285 287 286 285 282 280 280 281 281 281 281 282 281 281 281 281 281 281 281 281 281 282 281 281 281 280 279 279 279 280 281 281 280 280 280 282 283 281 280 279 279 279 279 279 278 278 277 276 276 275 273 272 271 270 268 267 266 265 265 264 264
286 280 281 282 286 278 280 277 279 284 283 284 286 284 284 286 286 284 284 281 282 283 283 283 284 285 285 285 282 279 280 280 280 280 280 280 280 280 280 280 280 279 280 280 281 281 280 280 280 279 277 277 277 278 279 280 280 279 279 280 283 279 277 277 277 277 278 278 278 277 276 276 275 274 273 272 271 270 269 267 266 265 264 264 264 263
286 283 284 281 286 282 281 282 282 281 283 283 283 284 285 286 284 284 283 282 281 281 282 282 282 283 283 283 281 280 279 279 279 280 280 279 280 280 280 280 280 279 279 280 280 280 279 280 279 278 277 276 276 276 278 278 279 278 278 280 278 278 277 276 276 277 277 277 276 276 275 273 273 272 271 270 270 269 268 266 264 264 263 263 264 263
282 284 284 285 283 282 282 283 283 282 282 282 282 283 283 283 283 283 283 283 283 282 282 281 282 282 282 282 282 280 280 279 279 279 279 279 279 279 279 279 279 278 278 277 278 279 278 278 277 277 276 275 274 275 276 276 277 277 278 276 277 276 276 275 275 275 276 275 275 274 272 271 270 269 269 268 269 270 269 267 265 265 264 263 264 264
281 282 283 281 283 283 279 281 281 282 281 282 282 282 281 282 282 282 283 282 281 281 282 280 280 281 281 282 282 281 280 279 279 278 279 278 278 279 279 279 278 279 279 278 278 278 277 276 277 276 275 275 274 275 274 274 276 278 276 274 275 275 274 273 274 275 272 274 273 271 271 272 270 268 266 266 266 266 267 266 265 265 264 264 263 264
280 283 282 282 280 281 278 278 279 279 280 281 282 282 282 282 281 280 279 278 278 279 280 280 281 281 281 281 280 281 280 280 280 279 279 279 279 278 279 278 278 278 278 277 277 276 274 275 277 276 275 276 276 275 274 274 275 276 274 273 273 271 272 273 273 274 273 273 272 271 270 270 268 267 266 265 265 266 266 266 265 265 266 265 265 265
282 285 278 282 280 278 278 279 279 280 282 282 281 281 282 283 281 280 279 278 279 279 279 279 279 280 281 280 279 280 280 280 280 280 279 278 278 278 278 278 278 277 277 278 275 275 276 275 275 276 276 277 276 275 273 274 274 272 272 272 269 270 271 272 270 270 268 269 269 269 268 268 267 267 266 264 264 265 266 266 266 266 267 266 266 267
282 278 281 281 277 277 278 279 280 279 278 282 282 282 282 282 281 279 278 279 279 278 278 278 278 278 278 280 280 280 280 279 279 279 279 279 279 278 278 278 277 277 276 275 275 274 273 274 274 274 275 277 275 274 274 273 272 271 271 270 267 269 270 269 268 267 268 268 268 268 266 266 265 265 265 264 264 263 263 267 271 268 266 265 270 273
281 281 281 279 280 279 282 282 283 283 283 284 284 284 283 283 281 280 280 279 278 278 278 278 277 278 278 279 279 280 279 279 279 278 278 278 278 278 278 277 277 277 276 275 275 273 274 274 274 274 274 275 274 274 273 272 271 270 270 271 270 270 269 269 269 268 269 268 268 268 267 265 265 264 264 264 263 262 263 262 265 272 273 272 271 273
Wind_Speed
4 4 4 6 8 8 7 8 8 8 6 6 1 3 5 4 4 6 4 1 2 1 5 5 6 8 9 5 11 10 8 7 6 8 7 8 8 8 7 7 6 6 7 5 6 4 4 4 3 3 3 3 4 5 3 2 3 3 4 4 5 4 4 5 6 6 6 7 7 8 8 9 6 7 8 8 8 8 8 9 9 9 9 9 9 9
1 5 8 9 8 7 7 8 9 8 8 4 3 4 5 2 6 4 2 3 1 0 2 3 5 8 8 6 7 7 9 10 10 10 8 8 8 7 8 8 7 6 6 6 6 5 4 4 4 3 3 3 5 4 3 2 3 4 4 5 5 5 7 6 6 6 6 5 5 7 6 8 6 6 7 8 8 8 8 9 9 9 9 10 10 9
4 9 9 10 7 6 7 7 4 6 5 5 3 2 4 5 4 4 5 3 1 3 6 6 8 8 7 6 4 13 13 12 14 14 14 13 10 8 8 8 8 8 7 6 6 5 4 5 5 4 3 3 4 3 3 2 3 4 5 5 5 6 6 6 6 6 7 6 6 7 7 8 9 7 7 7 7 7 9 9 9 9 9 9 9 9
5 7 12 9 7 7 6 1 1 1 1 1 2 3 7 3 3 3 1 0 2 1 2 3 9 10 10 9 10 11 13 8 7 8 5 8 10 9 10 10 10 9 9 9 8 8 6 5 5 5 4 4 4 3 3 2 3 4 5 5 6 6 6 7 7 8 8 9 9 9 9 8 9 8 7 8 8 8 10 10 9 9 8 9 9 9
10 2 3 9 8 5 4 4 3 3 4 4 6 5 4 4 5 6 2 3 3 4 3 6 8 11 9 11 11 10 5 4 1 4 3 3 4 6 6 7 8 10 11 10 9 8 8 7 6 6 5 4 4 3 3 2 3 4 5 5 6 6 6 6 7 8 9 11 10 10 10 9 9 7 7 7 8 8 7 8 9 8 8 8 8 8
11 6 0 4 5 4 4 4 5 4 5 5 6 9 7 6 6 5 3 2 2 3 6 5 4 4 6 12 15 3 3 4 4 6 5 4 2 6 8 8 7 6 8 10 11 10 9 8 7 6 7 5 5 4 2 3 4 5 6 6 7 6 6 8 7 8 8 8 9 8 7 7 7 8 7 7 7 6 7 8 5 8 8 8 8 8
3 2 6 6 4 4 5 5 4 7 5 3 3 5 11 8 5 3 5 2 4 3 2 1 4 8 3 8 2 4 6 9 4 7 7 7 6 5 6 7 7 9 9 7 8 9 9 8 8 7 7 6 6 4 3 3 5 5 6 6 6 7 6 6 7 8 7 6 5 5 6 7 7 10 6 5 5 6 6 6 8 7 7 7 8 8
5 2 2 3 5 6 5 6 4 9 5 4 1 4 2 2 2 3 3 4 5 3 1 2 2 8 11 10 7 5 7 9 9 9 9 10 11 10 8 8 7 8 8 9 9 9 8 9 9 9 8 7 7 5 4 4 4 6 6 6 6 5 5 4 4 4 6 8 8 9 8 7 7 8 9 6 6 6 6 8 8 7 7 7 7 7
4 5 5 5 5 5 8 5 4 8 5 2 1 3 2 1 0 1 1 3 3 3 6 5 2 4 6 3 8 9 6 9 14 13 13 13 11 12 11 10 10 8 8 9 10 10 10 11 9 8 8 7 7 5 4 4 5 5 6 7 6 6 5 4 5 6 7 7 9 8 9 9 6 8 8 6 6 6 6 8 7 7 7 7 7 6
3 1 4 7 6 7 2 3 2 7 7 0 2 4 3 3 1 0 1 1 3 2 10 5 6 5 16 5 4 5 9 12 13 14 14 13 13 12 12 11 11 10 8 7 8 8 9 9 8 7 8 7 6 4 4 4 5 5 6 7 7 6 5 5 6 8 8 8 8 9 9 11 10 7 7 6 7 6 5 7 7 6 6 6 6 6
3 3 3 0 3 1 4 2 4 3 3 5 4 4 2 1 1 1 0 1 3 8 12 8 9 8 11 2 9 8 8 11 9 4 7 9 9 9 10 11 12 12 11 9 9 8 7 6 8 9 9 7 6 5 4 5 5 5 6 7 8 6 6 6 6 7 8 8 8 9 9 10 11 9 9 8 7 6 6 7 6 6 6 6 6 6
2 2 0 1 3 4 3 3 4 2 2 5 2 2 1 1 2 0 1 2 3 11 3 13 11 12 10 2 3 8 2 5 8 7 10 12 13 12 10 10 11 11 11 11 10 10 9 8 8 8 9 8 7 5 5 5 5 6 6 7 8 7 6 6 6 7 8 8 8 7 8 9 9 9 8 9 9 7 7 7 7 6 7 6 6 5
6 5 2 2 5 5 3 4 1 1 1 2 4 4 6 2 2 2 2 4 8 10 1 2 11 4 18 12 5 2 2 0 3 7 13 14 12 11 10 11 10 9 10 11 11 11 10 10 11 10 9 9 8 7 6 7 6 6 7 8 9 8 6 6 6 7 7 8 8 8 8 7 8 8 8 8 8 6 7 7 7 7 7 6 6 5
5 5 8 4 2 5 7 8 3 0 5 5 7 7 5 3 4 5 4 4 3 4 1 0 1 8 2 5 12 20 5 2 3 1 10 13 15 14 13 12 11 10 10 11 11 11 10 11 10 9 10 9 8 8 8 7 7 6 7 7 9 8 6 6 7 7 8 7 7 6 7 7 8 8 8 7 7 7 7 7 7 7 7 6 5 4
4 3 7 9 6 9 12 14 11 5 8 11 5 9 9 7 3 4 5 7 5 2 1 3 5 6 5 6 1 2 3 3 2 2 6 7 9 10 10 9 10 10 9 10 11 11 12 11 11 10 10 9 8 9 8 7 7 7 8 8 9 9 7 7 7 7 8 7 7 6 6 7 7 8 8 7 7 7 8 7 8 7 6 7 5 5
12 6 2 14 1 11 14 8 4 6 3 5 5 2 4 9 1 8 1 0 1 2 2 2 6 2 5 0 2 2 3 3 2 2 7 9 9 10 10 12 12 11 11 10 10 10 9 10 9 9 9 9 9 9 7 7 7 8 8 8 9 10 9 8 8 7 8 7 7 6 7 7 8 7 7 7 7 7 7 8 8 8 7 6 6 4
1 5 4 4 3 11 9 4 7 8 4 4 5 9 9 1 4 5 2 2 2 2 11 5 6 5 5 5 4 2 4 2 1 1 5 7 10 11 11 11 11 11 11 10 11 10 11 10 8 9 9 9 9 9 9 8 8 9 10 10 10 9 7 8 8 8 7 7 7 7 7 8 8 8 8 9 8 8 7 8 7 7 6 5 4 4
6 2 2 2 3 2 0 2 2 2 1 7 4 5 3 4 3 2 3 0 2 6 8 8 11 4 5 10 5 5 4 4 4 5 5 7 8 12 10 11 12 12 11 9 8 8 9 10 10 9 8 8 9 9 9 9 7 8 9 10 11 10 11 8 8 8 7 8 8 8 8 7 7 8 8 8 8 7 9 8 7 6 6 5 4 3
2 4 3 1 4 3 3 1 1 1 4 4 4 1 7 2 2 2 2 8 4 9 6 4 7 10 11 10 2 6 7 8 9 7 6 10 11 12 10 10 10 10 10 11 12 11 11 11 11 11 10 9 8 8 8 8 8 8 7 8 10 11 10 9 8 7 7 6 7 6 7 8 8 7 7 7 8 8 9 7 6 6 6 5 4 4
2 5 1 2 1 1 0 3 8 5 2 1 1 2 0 1 1 6 7 1 2 7 1 13 6 14 8 8 14 13 15 13 11 10 13 15 15 13 12 13 14 14 13 13 12 12 12 11 11 12 12 12 12 11 9 8 7 9 9 10 9 8 8 8 8 8 8 7 7 8 7 6 7 7 7 7 8 8 7 7 7 6 5 4 4 4
2 3 5 1 4 5 2 5 10 13 12 3 1 2 1 1 1 2 3 5 4 3 6 8 11 3 3 9 14 15 16 15 16 17 15 13 13 13 13 14 14 14 14 13 13 13 13 12 11 10 8 8 7 7 7 8 9 9 8 9 9 11 10 9 8 8 7 8 8 9 8 8 7 7 7 7 7 8 7 6 6 5 4 5 4 4
2 3 10 4 0 6 6 7 13 13 16 15 15 13 15 10 5 4 10 3 4 3 7 3 16 5 2 2 7 13 13 12 15 16 14 13 13 14 13 13 15 14 13 14 13 13 13 11 10 8 7 6 8 9 9 8 7 8 8 9 9 9 9 10 9 8 8 7 8 8 8 8 6 7 7 7 7 7 7 6 6 5 4 5 4 4
6 2 2 6 9 10 8 0 1 2 2 1 5 5 8 7 5 6 11 4 2 10 3 3 5 14 2 3 4 1 6 11 13 11 11 12 14 14 13 13 13 14 16 16 14 13 12 12 11 11 12 11 11 10 9 9 9 8 8 8 8 10 9 8 9 8 8 9 8 8 7 8 7 7 7 8 7 7 6 6 5 5 5 4 4 4
7 2 3 7 1 2 3 2 2 1 1 2 3 1 7 14 14 13 9 2 5 2 4 2 7 6 1 3 3 1 2 0 6 11 13 10 9 11 12 13 14 12 11 11 11 9 10 10 9 10 11 11 11 11 11 9 8 8 8 8 9 10 10 9 8 9 9 8 8 8 8 8 7 7 7 8 7 7 6 6 4 5 5 5 4 4
4 3 5 1 3 1 0 2 2 2 1 4 5 10 10 6 7 8 2 1 4 12 6 6 17 7 2 1 2 2 2 2 4 6 10 11 8 10 11 11 11 12 12 13 14 13 11 11 13 14 13 12 11 10 10 11 10 10 10 9 10 9 9 9 8 9 9 9 10 9 9 8 7 8 7 7 7 7 7 6 5 4 5 5 4 4
7 7 9 8 13 14 12 10 9 7 11 5 4 7 8 12 12 7 9 10 10 14 10 9 17 4 2 1 1 0 0 1 1 2 4 8 12 11 9 10 11 13 14 14 14 12 15 16 13 11 11 11 12 12 11 11 11 10 10 9 9 10 10 9 9 9 10 9 10 9 9 9 8 8 8 8 8 8 7 7 6 6 5 5 5 4
3 4 12 14 16 17 16 5 2 10 5 9 10 13 16 14 13 10 7 7 18 5 7 20 19 9 6 1 4 4 4 5 5 3 8 8 8 10 10 11 12 12 13 16 16 15 10 9 14 15 13 12 11 11 11 12 12 11 10 10 9 10 10 10 10 10 10 10 10 10 9 9 9 9 9 8 8 7 7 7 7 6 6 5 5 4
3 5 13 17 19 20 17 14 4 15 14 17 15 15 17 15 16 15 14 20 8 2 16 18 4 13 18 6 8 9 7 5 5 7 5 6 9 11 10 7 7 8 8 9 10 13 17 18 15 14 14 13 13 12 11 10 11 11 12 12 11 11 10 9 11 11 11 10 10 10 10 9 8 8 9 8 8 7 7 7 7 6 5 5 5 5
7 10 12 13 17 19 19 16 11 9 11 11 16 16 17 18 16 20 24 22 7 12 22 14 11 19 19 10 11 11 11 12 13 15 13 8 7 8 10 12 12 12 12 14 15 15 15 15 15 15 14 14 12 13 13 11 11 10 9 9 10 11 12 11 12 12 12 11 11 11 10 9 8 7 9 9 9 8 8 7 7 6 6 5 4 4
3 8 13 12 16 17 19 17 12 11 9 6 9 14 15 19 24 26 24 22 21 18 20 20 11 15 13 6 10 12 10 11 7 5 6 8 11 13 12 12 13 14 14 15 16 16 16 16 14 14 14 13 16 15 14 13 13 13 13 13 12 11 10 11 12 12 12 12 11 10 10 10 9 9 9 9 9 8 8 7 7 6 6 5 4 4
6 11 11 1 6 16 19 14 11 15 12 12 10 8 14 19 21 21 18 18 16 18 23 21 15 21 15 2 4 6 5 5 6 9 12 11 10 10 11 12 12 12 12 13 13 14 13 13 13 12 14 15 16 16 15 14 14 12 12 12 12 13 12 12 12 13 13 12 11 11 11 10 9 10 10 9 9 7 9 9 7 6 5 4 4 4
6 5 4 3 7 15 16 10 9 9 10 11 15 18 21 19 11 8 15 17 14 21 22 15 15 21 14 5 0 3 7 10 10 9 9 9 11 11 13 11 10 10 10 12 12 11 11 13 14 16 17 16 15 15 14 13 13 13 15 14 14 13 11 12 12 13 12 11 11 11 12 11 11 11 11 10 10 9 8 8 7 7 6 6 5 5
7 5 6 6 10 14 15 3 11 9 7 10 17 30 28 15 13 13 13 14 18 20 14 14 22 20 7 6 5 4 9 9 8 9 8 5 6 9 10 10 10 10 12 12 11 12 13 15 16 16 15 13 15 16 16 15 13 15 15 14 13 10 11 12 12 12 11 11 12 12 12 11 12 11 10 10 9 8 8 9 8 8 8 8 5 4
4 7 7 4 6 12 1 4 3 4 12 17 10 3 11 18 19 18 19 21 19 15 17 17 8 2 4 8 12 9 9 10 9 5 4 10 11 9 8 10 12 11 9 8 9 11 10 9 9 11 13 13 13 13 11 12 14 12 9 9 8 11 11 12 11 12 12 12 13 12 12 12 12 11 11 10 9 9 9 9 10 8 7 6 6 6
12 10 10 5 5 9 5 7 4 13 17 5 4 3 2 7 14 19 23 19 14 16 16 15 8 5 5 8 10 12 8 3 2 6 5 9 10 10 11 9 9 10 11 10 9 9 9 10 9 9 9 10 12 11 11 12 11 9 10 11 12 12 12 12 12 12 13 14 13 11 11 13 12 11 10 10 10 9 9 10 8 8 8 8 8 8
8 11 4 3 3 3 2 7 7 12 3 5 3 1 4 2 4 6 12 18 20 17 16 18 17 6 4 3 4 3 7 3 3 2 2 3 5 6 3 3 3 5 6 7 9 9 10 11 12 12 12 9 9 10 12 13 12 12 13 11 13 12 12 12 12 13 12 13 12 12 13 12 12 11 11 11 10 10 10 9 10 10 8 7 6 5
11 7 6 6 6 8 6 10 15 7 14 8 2 2 6 7 7 11 11 15 15 14 13 14 12 7 5 3 3 3 2 2 1 5 1 3 2 3 1 1 3 4 5 5 8 9 8 8 9 9 7 8 10 11 11 10 11 11 10 11 11 12 11 12 13 14 15 13 12 13 12 12 12 12 12 12 12 12 11 11 9 7 7 8 8 8
4 13 9 10 6 11 10 9 3 4 13 14 1 2 1 2 3 7 9 9 1 4 8 10 8 9 7 4 3 4 4 2 5 9 3 1 1 4 3 3 4 4 5 5 4 5 6 6 5 6 8 8 8 9 7 8 10 10 10 11 10 11 12 12 15 15 13 12 12 13 12 13 13 13 13 12 14 13 11 9 7 9 9 11 10 9
3 1 3 14 5 7 9 9 8 10 8 3 3 1 2 2 3 4 2 10 1 1 4 9 8 11 10 9 5 5 5 6 10 7 6 4 4 4 6 4 4 4 5 6 8 8 7 6 7 7 7 7 8 7 8 9 10 10 10 10 11 11 11 14 14 12 12 13 12 12 12 12 12 12 13 13 13 12 12 11 12 9 8 7 7 8
4 3 4 7 10 8 11 10 11 4 3 3 4 1 2 3 2 7 3 6 0 3 3 2 9 11 8 9 11 9 10 8 8 7 2 7 8 7 8 9 7 6 5 4 4 5 7 6 8 6 7 7 7 6 8 8 9 10 10 10 9 10 13 15 14 12 11 11 12 11 11 11 12 12 13 14 12 10 10 8 7 9 9 8 7 7
6 4 8 15 13 13 12 9 2 4 2 2 2 2 2 2 2 7 8 2 0 1 3 2 5 9 10 10 9 9 6 2 3 4 5 8 8 5 4 4 5 6 7 6 6 6 6 5 6 7 7 6 6 6 7 8 9 9 8 8 9 12 14 13 10 11 12 11 10 10 11 10 11 14 13 12 12 10 8 9 10 9 9 9 7 6
2 2 1 3 10 12 11 10 8 1 2 2 2 2 2 3 4 8 2 1 1 1 2 2 5 5 9 12 10 3 4 4 5 5 6 5 6 5 6 7 7 6 5 4 6 6 6 5 5 5 4 4 6 6 6 7 8 7 7 7 10 13 13 10 10 9 8 8 9 9 10 11 10 11 11 8 9 9 9 7 8 9 9 8 8 9
11 9 9 11 5 1 1 7 2 8 1 4 5 4 2 4 3 3 4 1 1 3 3 1 4 5 7 6 3 5 6 4 5 5 4 5 6 7 8 8 8 8 8 6 4 4 7 7 6 6 6 4 5 5 5 7 7 6 6 9 14 11 6 5 5 6 7 7 8 9 10 10 11 10 8 9 10 11 10 9 9 8 8 9 8 8
3 5 4 5 4 5 7 8 5 2 6 3 4 6 3 2 2 4 4 3 0 2 2 3 1 5 4 6 7 5 6 7 5 6 6 5 4 4 4 5 5 5 4 4 5 7 5 6 6 6 4 4 4 5 5 8 8 6 7 12 10 3 3 5 5 6 7 8 8 8 8 9 9 9 8 10 10 10 10 9 9 8 8 8 9 9
3 6 0 4 1 5 2 1 1 3 1 1 1 1 2 2 3 2 3 5 5 3 1 3 4 3 4 6 6 7 5 4 6 6 7 6 6 6 6 6 7 7 7 7 6 5 5 7 7 6 4 4 5 4 5 5 9 7 8 8 4 5 6 5 5 6 7 7 7 7 7 6 8 9 8 9 10 11 10 9 9 9 7 8 8 8
3 2 0 2 1 2 2 3 2 2 2 1 2 1 4 3 0 1 4 4 1 3 6 3 4 5 4 6 8 2 5 5 7 4 5 5 5 4 4 4 4 4 4 4 4 5 4 4 5 6 6 4 4 5 5 5 6 8 8 2 5 5 5 5 6 6 7 6 6 6 6 7 6 7 7 8 8 10 10 12 11 10 9 9 9 9
1 1 1 3 2 3 2 3 2 3 2 1 1 2 2 1 0 1 1 2 2 1 1 4 3 4 5 4 5 6 5 5 6 4 5 5 5 5 6 6 5 6 7 6 5 6 5 5 6 6 6 6 5 6 5 6 6 8 3 3 4 5 5 6 6 6 5 6 6 5 7 9 8 7 6 6 6 6 7 8 9 9 9 10 10 10
2 3 2 2 2 2 1 3 1 1 1 1 0 3 3 2 0 2 2 3 3 4 4 4 4 4 4 4 4 6 5 5 7 5 5 5 6 5 5 5 5 4 3 3 5 5 4 5 7 7 6 6 7 7 6 6 8 8 3 1 3 4 5 5 6 7 7 7 6 7 7 7 8 9 7 7 7 8 7 8 9 11 13 14 15 14
3 5 3 3 4 2 3 1 1 4 1 3 3 4 3 1 2 1 1 3 3 5 5 5 4 3 4 4 4 6 6 5 5 7 6 4 4 4 5 5 5 5 4 4 4 5 6 5 6 6 6 8 5 5 5 6 6 2 3 2 2 5 5 5 4 4 4 5 5 6 6 6 6 7 7 7 7 8 8 9 10 11 9 6 5 8
5 3 2 5 3 3 6 7 8 7 3 6 7 8 6 5 4 3 2 2 3 4 4 5 4 4 3 2 4 6 7 5 4 5 6 6 6 5 4 4 4 4 4 4 4 5 4 4 4 5 5 6 3 5 5 6 4 3 3 4 4 4 5 4 4 4 5 4 5 5 5 5 6 6 7 7 8 7 6 6 9 8 7 7 7 14
6 5 5 5 5 4 3 8 7 2 3 7 11 8 7 5 4 4 5 4 3 3 5 7 5 2 1 1 1 4 5 6 5 4 4 4 4 3 4 4 4 3 3 3 4 3 5 5 3 3 5 4 1 2 2 2 3 4 4 5 5 5 5 5 5 5 5 5 6 7 6 6 6 6 6 6 6 6 7 5 6 12 16 13 10 11
Wind_Direction
131 181 192 201 213 216 207 213 229 242 262 288 320 283 278 283 269 290 149 156 205 282 241 248 258 264 264 211 193 189 190 208 207 205 189 175 173 172 172 168 159 149 134 129 123 115 119 119 105 102 109 101 97 93 93 64 70 79 89 82 77 92 109 100 95 87 83 88 90 79 74 79 68 68 67 61 51 51 49 46 47 46 45 43 43 40
22 209 227 222 221 217 230 216 215 238 260 264 300 305 288 259 267 257 211 185 80 170 270 267 284 268 266 265 182 176 174 204 205 206 195 188 180 174 170 162 157 119 115 132 132 140 124 117 119 105 106 129 100 101 108 60 72 78 69 72 73 61 59 59 59 67 66 59 71 96 80 85 72 66 65 65 53 54 52 49 48 47 45 46 46 41
213 222 227 229 231 247 250 255 251 221 230 233 224 250 271 256 266 267 95 141 126 94 271 260 257 269 265 257 184 178 188 205 204 199 196 185 181 174 171 158 146 132 148 150 145 143 132 134 131 119 107 93 105 108 103 102 93 79 71 66 66 58 60 56 64 72 82 73 66 85 92 92 91 72 77 79 73 63 61 53 49 47 47 48 49 46
242 240 236 236 233 234 242 179 296 305 288 261 235 230 238 267 292 291 134 117 214 199 281 328 306 276 269 256 250 199 198 205 210 209 191 183 179 175 175 163 158 153 152 161 152 149 149 148 134 133 126 123 120 119 114 96 91 84 81 83 78 70 69 74 72 88 89 93 93 86 96 88 88 98 81 75 67 62 59 54 48 46 47 46 49 45
219 255 192 200 222 231 200 200 197 214 247 210 220 234 247 232 233 216 228 196 168 243 234 285 283 275 252 253 239 227 171 120 73 81 63 24 134 144 138 147 163 164 159 157 156 151 154 155 152 147 140 136 126 114 112 113 107 109 101 94 93 94 95 93 98 99 105 104 99 100 97 98 95 74 74 74 63 60 62 65 50 45 45 48 50 46
249 239 30 197 178 166 212 234 200 181 231 248 218 210 230 234 251 265 291 64 346 293 205 169 323 268 229 224 236 151 106 181 180 171 185 164 145 142 157 161 158 160 161 160 162 158 156 154 143 134 142 144 128 120 117 114 115 113 108 105 106 103 101 111 118 120 117 112 118 120 115 103 95 84 67 74 86 73 64 67 65 55 48 48 50 46
245 141 158 160 164 182 191 214 202 160 223 231 275 211 212 224 266 309 307 2 288 249 332 34 194 277 330 305 311 166 193 210 160 202 198 180 184 178 170 163 168 161 157 149 148 154 155 147 144 148 150 147 134 130 146 112 110 108 110 112 112 118 123 129 127 133 131 126 117 106 99 100 110 112 90 92 85 90 89 82 68 64 53 49 53 47
111 168 101 136 150 172 193 211 200 169 185 243 261 351 154 211 229 252 261 213 248 334 229 164 164 273 284 251 250 178 203 220 215 212 208 200 192 189 180 174 172 165 159 155 158 159 151 151 157 159 148 140 138 141 141 129 117 114 116 110 109 105 101 92 104 96 95 97 100 99 101 103 106 103 114 105 99 95 96 88 80 73 62 53 51 54
140 177 147 186 177 186 211 212 182 180 180 199 272 80 65 83 288 346 236 267 251 4 268 171 141 302 244 261 198 158 212 224 230 214 211 207 195 188 185 179 170 163 161 157 159 163 158 158 159 151 140 127 129 139 139 133 123 116 113 113 107 102 95 87 90 100 97 102 106 110 118 109 99 107 110 112 104 102 99 95 91 83 75 63 53 54
352 168 193 180 169 215 167 19 342 170 205 209 135 61 80 82 55 241 318 265 316 262 247 170 175 220 274 221 205 191 217 234 230 214 211 200 191 183 181 174 164 159 158 156 159 158 156 156 147 134 122 125 129 130 128 124 122 120 118 115 111 104 102 104 102 105 108 110 115 121 124 122 122 124 115 113 113 106 102 94 89 86 82 75 63 53
169 168 155 157 219 179 109 43 32 48 96 142 129 92 63 76 150 31 192 59 349 244 244 182 194 177 283 192 191 169 221 221 235 210 196 182 178 173 175 167 166 163 162 162 159 155 148 137 131 132 136 130 125 135 137 132 130 129 125 123 115 118 112 113 115 113 115 114 123 128 130 130 132 131 128 123 114 109 100 100 94 91 91 84 74 57
125 68 275 251 71 110 112 65 20 340 122 134 132 124 102 325 46 96 310 169 200 264 191 186 195 192 225 278 224 202 185 201 218 198 165 170 175 171 170 166 165 163 162 158 155 154 144 132 135 139 137 141 145 141 141 145 138 133 133 127 121 119 120 118 117 114 116 123 126 125 129 130 131 132 132 129 126 128 120 118 112 104 91 81 74 62
242 196 140 69 283 146 151 95 358 24 352 163 114 113 123 226 66 289 141 220 206 244 304 300 183 225 235 233 295 263 122 313 354 160 169 166 167 165 164 163 164 160 158 160 159 156 156 158 157 152 148 146 157 156 156 154 147 138 135 134 128 128 127 122 120 121 122 124 127 130 131 131 127 122 122 123 122 132 127 121 113 104 97 86 76 64
275 183 185 182 43 225 160 176 157 258 228 170 160 161 130 197 216 251 207 220 265 261 280 25 107 243 322 285 213 249 234 50 13 96 154 160 166 169 165 161 160 164 166 165 163 163 164 164 163 155 153 156 157 159 159 158 151 147 142 140 132 134 129 127 124 126 122 122 126 128 126 123 122 120 121 121 120 116 110 110 106 105 104 100 98 86
245 326 229 139 239 168 198 207 189 161 157 199 178 167 184 172 168 230 187 217 226 225 332 279 105 235 117 240 301 315 70 52 4 342 146 144 150 149 147 148 151 161 171 169 169 170 168 166 164 157 157 159 160 160 161 159 157 149 145 143 139 134 135 135 135 127 123 124 123 122 119 117 117 117 112 109 110 112 110 108 107 105 101 104 105 100
213 233 193 178 65 153 197 211 159 121 149 207 189 201 233 218 152 233 164 290 330 6 290 205 205 205 183 85 151 167 58 48 5 40 120 131 133 138 148 161 167 170 171 171 168 164 165 163 160 154 157 161 160 162 161 162 158 153 151 145 144 141 143 140 134 132 131 131 126 122 119 116 113 111 109 105 103 103 105 107 105 104 104 108 110 109
132 238 101 82 129 169 205 174 202 144 189 205 138 213 206 36 206 284 331 60 98 24 250 149 284 288 304 249 157 126 125 114 96 189 132 144 148 150 165 167 169 172 171 171 171 167 161 160 164 159 157 159 159 162 167 167 164 159 153 150 145 144 140 141 140 137 135 130 121 116 114 116 115 118 120 121 116 111 103 101 101 107 114 110 107 116
156 192 328 109 191 349 5 306 209 20 105 97 196 228 83 69 80 137 233 350 180 231 266 151 226 245 143 271 144 156 160 188 208 198 185 158 160 169 175 176 174 174 174 166 160 162 162 162 162 158 161 162 163 162 164 165 164 157 156 154 148 147 147 147 141 138 138 133 125 122 117 111 115 118 117 118 117 110 105 98 102 102 102 116 130 130
99 283 206 322 46 351 346 36 51 42 32 149 181 315 136 253 263 234 81 258 237 247 278 222 213 233 191 223 140 201 199 208 203 198 186 176 183 187 176 174 172 162 161 168 167 167 168 170 170 167 164 160 160 163 163 161 156 153 153 153 152 151 151 145 140 135 129 128 127 124 123 122 118 117 117 117 111 109 111 117 114 114 126 128 141 143
104 202 306 312 18 160 96 157 193 212 268 78 350 326 297 93 182 146 198 245 130 264 332 265 153 259 176 218 173 200 205 204 185 184 204 196 188 182 179 176 176 175 175 174 172 172 173 171 170 169 167 166 167 166 165 160 154 157 156 152 150 141 137 135 137 139 135 132 127 124 117 115 119 122 122 122 119 115 117 120 123 131 138 146 135 139
243 131 261 196 299 118 205 188 204 177 184 222 134 249 225 155 292 107 309 200 182 226 235 281 277 249 207 179 179 194 198 198 181 192 201 197 188 186 183 178 180 180 176 178 174 173 173 171 168 167 165 160 155 157 157 161 163 160 154 155 154 148 146 144 145 139 138 130 130 129 130 130 128 125 123 117 114 116 120 123 126 137 143 127 142 135
176 142 221 117 288 220 233 197 206 191 193 187 183 199 188 164 173 194 252 142 230 201 240 231 262 255 297 351 188 185 196 189 190 191 195 192 184 184 183 184 181 179 181 177 177 173 170 168 166 158 152 154 158 164 164 165 162 163 162 160 150 147 151 149 148 145 138 133 135 135 132 128 128 128 124 120 119 120 123 130 133 140 126 129 140 120
167 151 176 197 213 212 216 340 224 60 50 268 194 222 181 199 169 184 236 221 188 235 253 236 314 271 143 19 37 122 170 184 190 183 189 189 187 184 185 183 184 183 176 177 176 174 172 170 168 168 169 170 170 167 165 168 170 167 163 157 156 152 158 154 148 143 140 139 139 138 134 133 135 133 129 126 125 124 127 132 138 137 135 136 127 119
90 123 195 260 82 54 29 123 35 23 52 353 301 216 164 204 193 205 210 172 207 208 190 250 245 274 328 33 14 14 347 117 171 176 181 181 180 181 178 179 179 177 181 169 169 167 165 163 159 162 173 173 174 175 175 171 168 167 169 163 158 160 158 154 149 145 142 142 140 140 137 140 140 135 135 131 131 131 133 135 137 134 132 137 130 124
149 215 166 128 308 258 54 6 344 6 64 214 198 208 212 215 205 224 259 68 277 228 186 165 250 228 269 20 34 353 28 66 137 161 160 165 179 182 180 179 179 176 167 167 170 169 160 162 173 181 180 178 176 176 174 175 178 173 173 167 165 162 161 155 152 149 149 148 146 147 146 147 146 144 141 136 136 139 137 139 137 133 139 135 137 132
173 156 151 195 224 234 236 214 196 197 209 223 238 215 209 205 200 162 219 220 231 244 158 230 250 238 303 101 215 170 73 82 31 115 156 172 170 174 179 176 176 172 174 170 167 162 175 181 179 176 179 179 182 180 178 178 178 176 176 173 166 163 163 162 154 154 152 154 152 154 154 153 153 155 149 142 142 146 147 144 144 144 143 144 142 135
165 190 188 197 214 230 238 246 152 145 114 189 215 190 213 210 209 205 222 209 225 224 167 230 235 266 267 222 243 229 193 193 182 183 174 172 176 177 175 174 175 176 172 173 175 177 168 170 184 187 183 183 181 182 182 179 179 178 177 174 172 170 165 162 157 158 159 160 159 158 162 162 164 158 149 147 148 148 148 147 146 147 151 147 140 141
91 196 217 217 219 233 241 234 201 161 183 204 197 206 208 201 202 201 205 225 208 154 254 242 189 249 246 200 225 220 207 206 201 196 190 179 174 172 169 156 151 152 163 165 167 172 182 189 186 182 183 181 185 182 181 183 183 180 179 178 174 171 167 164 161 162 164 163 164 167 167 166 162 154 148 146 147 150 150 147 149 150 146 133 143 160
167 215 220 215 234 241 244 245 229 199 199 197 201 200 201 204 201 205 221 228 169 203 236 246 173 232 247 211 213 211 200 201 194 195 193 171 139 139 150 159 166 170 167 173 182 185 187 187 188 186 183 186 179 182 183 180 182 181 183 182 180 174 173 165 163 167 169 168 170 173 167 162 160 151 147 149 152 152 154 154 151 145 137 135 153 157
149 237 232 209 232 242 246 245 238 225 226 215 207 211 207 201 206 208 218 219 216 227 239 251 233 241 247 225 208 209 195 198 203 143 126 148 170 167 166 170 172 173 176 182 185 188 192 192 186 187 184 182 186 184 183 183 184 186 184 184 183 177 173 164 171 171 173 175 175 169 167 165 160 155 149 153 159 159 155 153 153 144 140 147 154 154
157 233 228 102 239 249 247 242 237 241 245 244 237 224 219 216 215 213 217 227 225 242 246 247 255 262 247 145 204 204 157 88 94 150 173 176 163 167 175 179 181 182 184 188 189 191 191 188 188 184 186 190 189 188 186 188 186 183 185 186 183 181 176 170 173 177 178 178 173 168 165 163 161 154 160 161 156 159 159 158 154 146 144 149 151 166
158 268 72 118 228 256 252 229 235 242 249 252 254 244 237 223 215 199 219 221 203 224 235 240 249 253 246 148 238 114 124 152 169 172 170 176 179 174 174 181 182 187 190 195 194 188 186 189 188 189 192 191 190 188 188 188 186 183 192 187 184 182 171 174 177 180 181 176 172 173 170 168 162 163 167 164 169 167 164 155 151 153 154 156 160 174
187 189 199 172 223 245 263 143 225 232 246 258 249 241 234 225 219 221 227 222 214 216 225 225 233 243 253 156 142 194 176 180 179 174 173 160 165 167 173 180 188 192 198 196 191 189 192 192 193 192 191 188 190 191 195 187 182 192 191 185 184 169 174 179 179 178 178 180 179 178 174 166 169 171 171 173 168 165 159 159 157 156 159 172 172 163
180 193 219 167 223 243 282 125 112 187 223 230 245 276 223 223 213 218 226 222 220 201 221 229 252 268 153 168 183 187 188 193 175 174 168 165 164 181 184 182 186 190 187 185 186 190 193 190 192 194 193 193 193 194 183 180 191 192 181 174 163 175 179 177 181 181 184 185 187 181 174 172 172 175 174 169 166 164 168 167 174 169 164 156 161 180
191 190 215 162 194 229 132 105 188 218 228 235 358 254 65 212 211 217 232 238 229 222 234 247 243 208 196 186 192 187 174 110 108 147 150 165 165 172 180 181 169 165 169 170 179 184 183 184 184 182 183 188 186 179 172 185 186 171 170 175 178 180 179 182 182 186 188 192 189 178 176 177 177 176 172 170 169 170 176 178 167 165 170 170 178 180
193 194 186 215 179 32 106 177 230 232 249 304 293 110 243 110 182 188 242 241 235 223 216 227 230 205 165 96 59 90 129 162 130 121 142 173 163 161 148 176 161 143 166 180 174 181 178 182 182 184 191 179 167 176 179 185 176 174 184 176 179 179 183 180 185 192 193 195 187 184 182 178 178 176 174 173 172 176 180 179 178 175 172 168 175 177
187 192 180 237 170 218 201 216 239 338 318 265 314 197 155 172 168 177 223 242 232 222 211 218 220 165 139 111 126 102 136 101 336 279 206 170 100 79 127 166 155 181 166 174 175 183 182 175 176 183 170 170 176 175 185 174 170 175 169 174 182 178 181 183 192 197 197 193 188 188 183 179 179 181 178 176 176 183 185 180 181 176 167 169 178 179
212 194 187 211 216 202 218 238 255 257 241 263 222 243 118 310 226 188 194 272 342 208 190 196 189 162 149 130 104 94 62 55 288 272 308 312 82 88 63 108 132 139 148 150 144 150 160 165 162 160 160 167 174 176 163 159 164 165 172 180 179 180 187 191 202 201 195 193 192 190 184 184 183 183 180 177 187 189 189 182 176 178 176 178 178 187
13 341 202 202 208 165 221 226 221 225 243 117 222 251 278 297 140 107 105 253 277 266 194 169 161 165 162 152 152 114 119 194 234 237 242 174 168 152 122 102 111 129 138 149 151 149 149 151 152 154 148 154 166 170 158 158 158 165 178 181 183 185 190 202 207 197 195 197 193 191 190 188 185 185 182 186 194 188 181 182 183 179 176 183 181 186
167 183 161 222 223 208 209 222 232 229 246 230 218 244 262 288 163 101 170 280 323 348 345 169 155 162 166 159 155 163 168 211 231 244 197 176 166 161 148 143 131 123 117 112 102 124 125 122 111 119 138 152 166 155 152 152 160 173 179 184 178 185 201 208 204 198 199 197 194 192 189 188 188 189 186 193 191 185 186 168 157 172 179 182 178 173
175 208 204 212 215 219 222 243 323 291 266 265 139 225 266 268 113 150 198 178 348 12 342 104 145 163 153 155 162 174 222 192 160 134 100 111 108 105 96 111 131 136 137 130 128 117 115 117 130 147 154 156 149 144 147 149 157 177 180 173 178 201 209 207 196 195 200 195 191 190 190 189 189 191 195 191 187 179 171 171 175 170 173 175 171 167
196 120 349 240 232 225 219 228 236 325 239 136 346 159 266 94 193 202 182 253 142 174 357 108 124 158 161 167 182 161 137 112 86 81 97 112 127 127 123 120 107 87 74 97 116 120 118 119 118 116 120 135 141 142 145 149 162 176 171 174 198 212 211 201 198 196 190 186 189 190 187 190 193 194 190 177 159 165 180 181 169 175 173 167 169 177
180 166 192 203 204 20 118 231 178 235 211 99 122 25 325 130 238 154 143 39 138 168 132 94 145 169 153 171 158 121 120 96 112 115 118 124 130 136 137 136 136 139 137 127 114 130 135 131 138 146 149 141 139 143 148 149 167 174 177 190 215 215 200 188 180 177 180 186 189 192 191 191 186 184 174 173 174 172 178 171 168 170 166 167 173 180
195 138 201 222 172 191 184 205 207 285 146 221 145 173 187 195 162 163 129 113 77 148 156 128 163 176 170 138 130 125 128 119 102 115 104 109 122 120 118 124 120 126 133 145 150 151 139 129 134 135 133 131 139 145 153 156 168 176 182 216 223 178 166 173 176 171 181 191 196 190 190 187 184 178 174 172 168 173 170 173 173 168 175 174 174 179
211 176 193 173 147 151 204 177 264 270 130 91 108 264 134 163 139 195 130 146 148 229 194 156 191 158 151 136 137 138 129 146 150 154 137 149 145 149 149 157 157 160 160 159 162 155 142 147 150 141 138 147 151 162 167 170 165 178 199 230 176 186 180 179 170 176 191 196 194 191 185 172 176 177 175 173 168 172 176 172 166 174 182 174 183 186
347 149 37 98 286 129 70 117 81 28 99 2 7 307 140 138 358 78 130 114 207 177 176 155 132 146 134 141 130 146 137 144 127 123 117 126 129 139 125 117 116 126 124 116 128 148 150 127 134 146 161 177 178 179 180 184 168 173 219 169 170 179 165 161 170 188 201 198 192 186 161 171 182 179 177 174 182 185 182 177 178 182 179 183 194 194
230 148 93 133 217 115 255 71 55 140 108 5 66 1 355 51 99 354 88 81 46 42 57 35 84 121 137 125 138 139 142 137 125 127 128 131 134 149 155 151 155 156 159 167 167 145 147 144 155 172 173 187 205 191 196 190 204 214 194 154 167 157 160 167 181 196 195 194 188 174 172 180 183 178 175 181 179 180 175 177 181 182 184 190 193 199
292 180 81 186 56 135 176 124 241 6 45 307 274 171 164 213 348 16 44 83 75 45 82 75 80 87 110 120 146 134 146 140 133 150 142 154 158 154 158 160 161 160 175 139 141 153 149 170 180 183 186 208 211 197 194 199 214 221 203 151 141 148 151 175 186 194 201 195 185 184 181 187 175 172 181 187 181 185 192 192 188 191 196 193 195 195
166 114 203 169 133 112 57 105 91 75 343 281 283 285 274 230 193 224 92 75 84 89 73 53 61 137 141 170 132 133 131 168 165 164 158 152 149 153 171 172 177 174 158 154 161 164 184 193 199 203 195 220 206 188 194 214 225 210 182 187 132 144 159 186 192 194 191 184 177 194 184 186 182 186 180 186 197 213 205 196 196 208 222 231 206 207
98 169 169 86 99 196 191 183 168 131 221 232 237 228 231 229 191 185 137 101 104 111 123 101 55 34 68 115 133 139 153 168 171 158 162 169 174 183 175 182 180 166 166 177 155 168 189 201 209 230 233 241 193 181 198 217 211 175 167 160 147 145 166 174 166 187 206 189 192 191 175 187 189 189 190 190 200 202 233 238 217 214 216 231 218 218
156 189 141 163 174 219 172 163 188 137 171 203 196 207 214 209 174 185 199 175 163 164 148 132 116 83 96 38 81 132 146 156 174 145 132 157 183 182 178 168 172 181 194 167 157 184 196 222 214 231 254 259 287 246 229 205 176 171 177 168 167 163 173 164 183 201 209 193 209 195 190 187 191 193 193 193 189 196 209 241 259 234 227 221 221 225